EDT,Max TemperatureF,Mean TemperatureF,Min TemperatureF,Max Dew PointF,MeanDew PointF,Min DewpointF,Max Humidity, Mean Humidity, Min Humidity, Max Sea Level PressureIn, Mean Sea Level PressureIn, Min Sea Level PressureIn, Max VisibilityMiles, Mean VisibilityMiles, Min VisibilityMiles, Max Wind SpeedMPH, Mean Wind SpeedMPH, Max Gust SpeedMPH,PrecipitationIn, CloudCover, Events, WindDirDegrees
2011-10-1,57,48,38,37,34,32,82,61,40,30.28,30.21,30.10,10,10,10,21,9,26,0.00,2,,355
2011-10-2,65,51,36,42,37,33,92,66,39,30.27,30.21,30.13,10,10,10,16,7,21,0.00,1,,319
2011-10-3,72,55,38,44,38,33,92,59,25,30.24,30.18,30.13,10,10,10,12,4,16,0.00,1,,344
2011-10-4,73,57,41,49,44,37,92,64,35,30.32,30.27,30.24,10,10,7,10,3,13,0.00,2,,262
2011-10-5,78,62,45,52,47,42,93,62,31,30.31,30.27,30.24,10,10,9,10,2,13,0.00,1,,97
2011-10-6,81,65,48,54,50,46,93,63,33,30.33,30.29,30.26,10,8,5,8,3,10,0.00,1,,112
2011-10-7,82,67,51,55,51,48,89,60,31,30.38,30.32,30.29,10,10,7,15,6,17,0.00,2,,157
2011-10-8,81,67,52,56,53,50,89,63,36,30.38,30.33,30.30,10,9,7,13,5,15,0.00,1,,186
2011-10-9,82,67,51,57,53,48,89,63,36,30.41,30.34,30.29,10,9,6,9,3,14,0.00,0,,147
2011-10-10,78,65,52,54,52,49,89,64,39,30.30,30.22,30.12,10,9,6,17,6,21,0.00,5,,123
2011-10-11,80,66,52,53,48,45,83,57,30,30.12,30.04,29.98,10,10,5,16,6,21,0.00,3,,133
2011-10-12,75,63,50,53,50,47,89,65,41,29.96,29.87,29.75,10,9,5,16,6,20,0.00,5,,98
2011-10-13,65,59,52,58,54,50,100,84,67,29.73,29.57,29.41,10,4,0,20,6,26,0.32,7,Fog-Rain,143
2011-10-14,57,53,48,54,47,37,89,72,54,29.57,29.45,29.37,10,10,5,26,16,35,0.17,7,Rain,272
2011-10-15,58,53,47,43,39,34,86,63,40,29.80,29.66,29.54,10,10,10,36,19,47,0.13,6,Rain,271
2011-10-16,59,54,49,46,40,35,80,62,43,29.83,29.76,29.70,10,10,10,24,12,31,0.02,4,Rain,253
2011-10-17,57,52,46,39,34,31,71,56,41,29.79,29.74,29.72,10,10,10,32,17,40,0.00,2,,257
2011-10-18,55,46,37,41,38,35,92,73,54,29.85,29.81,29.76,10,10,10,17,5,21,0.00,6,,360
2011-10-19,47,45,43,45,41,39,93,85,76,29.84,29.65,29.44,10,6,2,32,17,40,0.91,8,Rain,18
2011-10-20,47,45,43,42,40,39,89,86,82,29.76,29.44,29.30,10,8,2,25,17,32,0.84,8,Rain,328
2011-10-21,50,42,33,40,37,32,89,75,61,30.10,29.98,29.79,10,10,9,16,8,20,T,6,,287
2011-10-22,61,46,31,43,35,29,96,69,42,30.10,30.07,30.03,10,9,5,13,5,17,0.00,2,,193
2011-10-23,64,50,36,46,40,33,85,63,40,30.02,29.95,29.83,10,10,7,30,6,41,0.02,3,Rain,196
2011-10-24,60,52,43,50,44,34,96,67,37,30.12,29.95,29.79,10,9,5,25,11,35,0.19,3,Rain-Thunderstorm,259
2011-10-25,62,51,40,47,43,39,93,73,52,30.13,29.98,29.80,10,10,7,17,8,22,0.04,6,Rain,91
2011-10-26,49,47,44,46,44,41,93,85,77,29.95,29.86,29.78,10,7,2,16,9,20,0.02,8,Rain,33
2011-10-27,52,43,34,41,36,31,89,69,48,30.16,30.02,29.93,10,10,9,16,6,22,T,5,Rain,333
2011-10-28,49,39,28,38,32,25,92,77,61,30.23,30.16,30.08,10,9,3,18,4,24,0.09,4,Rain,161
2011-10-29,54,43,31,39,34,29,92,68,44,30.14,30.05,29.99,10,7,2,21,5,26,0.25,5,Rain,270
2011-10-30,52,40,28,43,32,26,92,67,41,30.19,30.11,30.04,10,8,4,20,9,24,0.13,5,Rain,161
2011-10-31,54,44,33,43,38,31,92,71,50,30.17,30.05,29.99,10,9,5,17,6,22,T,5,Rain,197